Weather History for White Mountain, AK

Change the Weather History Date:

Monday, February 24, 2014

  Actual Average (PAKK) Record (PAKK)
Temperature  
Mean Temperature 26 °F -  
Max Temperature 30 °F 14 °F 41 °F (2002)
Min Temperature 21 °F 6 °F -18 °F (2007)
Degree Days  
Heating Degree Days 38    
Moisture  
Dew Point 13 °F    
Average Humidity 58    
Maximum Humidity 66    
Minimum Humidity 49    
Precipitation  
Precipitation 0.00 in - - ()
Sea Level Pressure  
Sea Level Pressure 29.91 in    
Wind  
Wind Speed 12 mph (SE)    
Max Wind Speed 17 mph    
Max Gust Speed 23 mph    
Visibility 10 miles    
Events      
Averages and records for this station are not official NWS values.
T = Trace of Precipitation, MM = Missing Value Source: NWS Daily Summary

Daily Weather History Graph

Daily Weather History Graph

Search for Another Location

Airport:

Trip Planner

Search our weather history database for the weather conditions in past years. The results will help you decide how hot, cold, wet, or windy it might be!

Date:

Astronomy

Feb. 24, 2014 Rise Set
Actual Time 9:19 AM AKST 6:55 PM AKST
Civil Twilight 8:29 AM AKST 7:45 PM AKST
Nautical Twilight 7:33 AM AKST 8:42 PM AKST
Astronomical Twilight 6:36 AM AKST 9:39 PM AKST
Moon 6:49 AM AKST (2/24) 12:51 PM AKST (2/24)
Length of Visible Light 11h 16m
Length of Day
9h 36m
Waning Crescent, 26% of the Moon is Illuminated
Feb 24
Waning Crescent
Feb 28
New
Mar 8
First Quarter
Mar 16
Full
Mar 23
Last Quarter

Hourly Weather History & Observations

Time (AKST) Temp. Windchill Dew Point Humidity Pressure Visibility Wind Dir Wind Speed Gust Speed Precip Events Conditions
12:58 AM 27.0 °F 15.6 °F 17.1 °F 66% 29.92 in 10.0 mi ESE 13.8 mph - N/A   Overcast
1:58 AM 26.1 °F 15.0 °F 16.0 °F 66% 29.92 in 10.0 mi ESE 12.7 mph - N/A   Overcast
2:58 AM 27.0 °F 15.2 °F 15.1 °F 61% 29.92 in 10.0 mi ESE 15.0 mph - N/A   Overcast
3:58 AM 26.1 °F 15.6 °F 14.0 °F 60% 29.92 in 10.0 mi ESE 11.5 mph - N/A   Overcast
4:58 AM 26.1 °F 13.1 °F 12.9 °F 58% 29.92 in 10.0 mi ESE 17.3 mph 23.0 mph N/A   Clear
5:58 AM 26.1 °F 15.0 °F 12.9 °F 58% 29.92 in 10.0 mi ESE 12.7 mph - N/A   Clear
6:58 AM 26.1 °F 15.0 °F 12.9 °F 58% 29.93 in 10.0 mi ESE 12.7 mph 23.0 mph N/A   Scattered Clouds
7:58 AM 25.0 °F 13.6 °F 12.0 °F 58% 29.92 in 10.0 mi ESE 12.7 mph 19.6 mph N/A   Clear
8:58 AM 24.1 °F 14.4 °F 12.0 °F 60% 29.93 in 10.0 mi ESE 9.2 mph - N/A   Clear
9:58 AM 24.1 °F 13.1 °F 12.0 °F 60% 29.93 in 10.0 mi SE 11.5 mph - N/A   Clear
10:58 AM 26.1 °F 14.0 °F 12.0 °F 55% 29.94 in 10.0 mi SE 15.0 mph 19.6 mph N/A   Clear
11:58 AM 28.0 °F 15.7 °F 12.9 °F 53% 29.94 in 9.0 mi SE 17.3 mph - N/A   Clear
12:58 PM 28.9 °F 18.6 °F 12.0 °F 49% 29.95 in 9.0 mi SE 12.7 mph - N/A   Clear
1:58 PM 30.0 °F 20.0 °F 12.9 °F 49% 29.95 in 9.0 mi SE 12.7 mph - N/A   Clear
2:58 PM 30.0 °F 20.5 °F 14.0 °F 51% 29.94 in 9.0 mi SE 11.5 mph - N/A   Clear
3:58 PM 28.9 °F 21.9 °F 15.1 °F 56% 29.93 in 10.0 mi SSE 6.9 mph - N/A   Clear
4:58 PM 30.0 °F 21.1 °F 12.9 °F 49% 29.87 in 10.0 mi SE 10.4 mph - N/A   Clear
5:58 PM 28.9 °F 21.9 °F 14.0 °F 54% 29.87 in 10.0 mi SE 6.9 mph - N/A   Overcast
6:58 PM 27.0 °F 19.5 °F 12.9 °F 56% 29.88 in 10.0 mi SE 6.9 mph - N/A   Clear
7:58 PM 26.1 °F 18.4 °F 12.9 °F 58% 29.88 in 10.0 mi ESE 6.9 mph - N/A   Clear
8:58 PM 25.0 °F 16.3 °F 12.9 °F 60% 29.89 in 10.0 mi ESE 8.1 mph - N/A   Mostly Cloudy
9:58 PM 24.1 °F 17.0 °F 12.9 °F 62% 29.89 in 10.0 mi SSE 5.8 mph - N/A   Clear
10:58 PM 23.0 °F 14.7 °F 12.9 °F 65% 29.89 in 10.0 mi ESE 6.9 mph - N/A   Clear
11:58 PM 21.9 °F 12.5 °F 12.0 °F 66% 29.90 in 10.0 mi ESE 8.1 mph - N/A   Partly Cloudy